| time (UTC) | temp F | wind direction | speed knots | gust knots | rain 1hr in | rain 24hr in | rain mn in | humidity % | barometer mb |
| 20260508060038 | 59 | 105 | 0.0 | 0.0 | 0.00 | 0.00 | 0.00 | 77 | 1010.3 |
| 20260508054537 | 59 | 104 | 0.0 | 0.0 | 0.00 | 0.00 | 0.00 | 75 | 1010.1 |
| 20260508053039 | 59 | 105 | 0.0 | 0.0 | 0.00 | 0.00 | 0.00 | 76 | 1009.9 |
| 20260508051535 | 59 | 130 | 0.0 | 0.0 | 0.00 | 0.00 | 0.00 | 75 | 1009.8 |
| 20260508050032 | 58 | 130 | 0.0 | 0.0 | 0.00 | 0.00 | 0.00 | 77 | 1009.7 |
| 20260508044532 | 58 | 130 | 0.0 | 0.0 | 0.00 | 0.00 | 0.00 | 78 | 1009.6 |
| 20260508043033 | 58 | 130 | 0.0 | 0.0 | 0.00 | 0.00 | 0.00 | 78 | 1009.4 |
| 20260508041532 | 57 | 130 | 0.0 | 0.0 | 0.00 | 0.00 | 0.00 | 78 | 1009.4 |
| 20260508040030 | 57 | 130 | 0.0 | 0.0 | 0.00 | 0.00 | 0.00 | 78 | 1009.4 |
| 20260508034530 | 57 | 130 | 0.0 | 0.0 | 0.00 | 0.00 | 0.00 | 77 | 1009.2 |
| 20260508033030 | 57 | 130 | 0.0 | 2.6 | 0.00 | 0.00 | 0.00 | 76 | 1009.2 |
| 20260508031529 | 57 | 130 | 0.0 | 0.0 | 0.00 | 0.00 | 0.00 | 77 | 1009.2 |
| 20260508030027 | 57 | 130 | 0.0 | 0.0 | 0.00 | 0.00 | 0.00 | 77 | 1009.4 |
| 20260508024542 | 57 | 130 | 0.0 | 0.0 | 0.00 | 0.01 | 0.00 | 77 | 1009.3 |
| 20260508023027 | 56 | 130 | 0.0 | 0.0 | 0.00 | 0.01 | 0.00 | 79 | 1009.5 |
| 20260508021524 | 56 | 131 | 0.0 | 0.0 | 0.00 | 0.01 | 0.00 | 79 | 1009.5 |
| 20260508020023 | 56 | 131 | 0.0 | 0.0 | 0.00 | 0.01 | 0.00 | 79 | 1009.6 |
| 20260508014528 | 56 | 131 | 0.0 | 0.0 | 0.00 | 0.01 | 0.00 | 80 | 1009.7 |
| 20260508013020 | 56 | 131 | 0.0 | 0.0 | 0.00 | 0.01 | 0.00 | 80 | 1009.7 |
| 20260508011518 | 57 | 131 | 0.0 | 0.0 | 0.00 | 0.01 | 0.00 | 79 | 1009.8 |
| 20260508010026 | 57 | 131 | 0.0 | 0.0 | 0.00 | 0.01 | 0.00 | 79 | 1010.0 |
| 20260508004518 | 57 | 131 | 0.0 | 2.6 | 0.00 | 0.02 | 0.00 | 78 | 1010.1 |
| 20260508003015 | 57 | 151 | 0.0 | 0.0 | 0.00 | 0.02 | 0.00 | 78 | 1010.1 |
| 20260508001513 | 57 | 151 | 0.0 | 1.7 | 0.00 | 0.02 | 0.00 | 78 | 1010.2 |
| 20260508000011 | 58 | 173 | 0.0 | 2.6 | 0.00 | 0.02 | 0.00 | 79 | 1010.3 |
| 20260507234516 | 58 | 178 | 0.0 | 0.0 | 0.00 | 0.06 | 0.00 | 78 | 1010.5 |
| 20260507233023 | 58 | 153 | 0.0 | 2.6 | 0.00 | 0.06 | 0.00 | 78 | 1010.5 |
| 20260507231505 | 58 | 227 | 0.0 | 4.3 | 0.00 | 0.06 | 0.00 | 78 | 1010.8 |
| 20260507230004 | 58 | 202 | 0.0 | 2.6 | 0.00 | 0.06 | 0.00 | 78 | 1011.0 |
| 20260507224612 | 57 | 248 | 0.0 | 0.0 | 0.00 | 0.17 | 0.00 | 80 | 1011.4 |
| 20260507223057 | 56 | 252 | 0.0 | 0.0 | 0.00 | 0.17 | 0.00 | 84 | 1011.6 |
| 20260507221555 | 56 | 252 | 0.0 | 0.0 | 0.00 | 0.17 | 0.00 | 85 | 1011.8 |
| 20260507220053 | 56 | 252 | 0.0 | 0.0 | 0.00 | 0.17 | 0.00 | 86 | 1011.9 |
| 20260507214603 | 56 | 252 | 0.0 | 0.0 | 0.00 | 0.24 | 0.17 | 86 | 1011.9 |
| 20260507213052 | 57 | 252 | 0.0 | 0.0 | 0.00 | 0.24 | 0.17 | 89 | 1011.9 |
| 20260507211552 | 57 | 252 | 0.0 | 0.0 | 0.00 | 0.24 | 0.17 | 90 | 1012.1 |
| 20260507210058 | 57 | 252 | 0.0 | 0.0 | 0.00 | 0.24 | 0.17 | 91 | 1012.0 |
| 20260507204550 | 56 | 252 | 0.0 | 0.0 | 0.00 | 0.31 | 0.17 | 91 | 1012.0 |
| 20260507203104 | 56 | 252 | 0.0 | 0.0 | 0.00 | 0.31 | 0.17 | 90 | 1012.0 |
| 20260507201558 | 56 | 252 | 0.0 | 0.0 | 0.00 | 0.31 | 0.17 | 89 | 1012.0 |
| 20260507200104 | 57 | 252 | 0.0 | 0.0 | 0.00 | 0.31 | 0.17 | 89 | 1011.8 |
| 20260507194549 | 57 | 252 | 0.0 | 0.0 | 0.00 | 0.31 | 0.17 | 88 | 1011.8 |
| 20260507193050 | 57 | 252 | 0.0 | 0.0 | 0.00 | 0.31 | 0.17 | 85 | 1011.8 |
| 20260507191547 | 57 | 252 | 0.0 | 0.0 | 0.00 | 0.31 | 0.17 | 81 | 1011.9 |
| 20260507190052 | 58 | 252 | 0.0 | 0.0 | 0.00 | 0.31 | 0.17 | 81 | 1011.9 |
| 20260507184555 | 58 | 252 | 0.0 | 0.0 | 0.00 | 0.33 | 0.17 | 80 | 1011.9 |
| 20260507183049 | 59 | 252 | 0.0 | 0.0 | 0.00 | 0.33 | 0.17 | 79 | 1012.0 |
| 20260507181545 | 59 | 252 | 0.0 | 0.0 | 0.00 | 0.33 | 0.17 | 78 | 1011.9 |
| 20260507180048 | 60 | 252 | 0.0 | 0.0 | 0.00 | 0.33 | 0.17 | 78 | 1012.0 |
| 20260507174546 | 61 | 253 | 0.0 | 0.9 | 0.00 | 0.35 | 0.17 | 79 | 1011.9 |
| 20260507173043 | 61 | 272 | 0.0 | 5.2 | 0.00 | 0.35 | 0.17 | 78 | 1011.9 |
| 20260507171544 | 62 | 269 | 0.0 | 3.5 | 0.00 | 0.35 | 0.17 | 79 | 1012.0 |
| 20260507170043 | 63 | 288 | 0.0 | 3.5 | 0.00 | 0.35 | 0.17 | 78 | 1012.0 |
| 20260507164556 | 64 | 294 | 0.0 | 4.3 | 0.00 | 0.35 | 0.17 | 79 | 1011.8 |
| 20260507163041 | 65 | 261 | 0.0 | 2.6 | 0.00 | 0.35 | 0.17 | 79 | 1011.9 |
| 20260507161540 | 67 | 273 | 0.9 | 3.5 | 0.00 | 0.35 | 0.17 | 76 | 1012.0 |
| 20260507160041 | 69 | 256 | 0.0 | 2.6 | 0.00 | 0.35 | 0.17 | 74 | 1011.9 |
| 20260507154547 | 69 | 315 | 0.0 | 4.3 | 0.00 | 0.35 | 0.17 | 74 | 1011.8 |
| 20260507153038 | 70 | 278 | 0.9 | 5.2 | 0.00 | 0.35 | 0.17 | 71 | 1011.8 |
| 20260507151538 | 70 | 259 | 0.0 | 6.1 | 0.00 | 0.35 | 0.17 | 73 | 1012.0 |
| 20260507150036 | 70 | 254 | 0.0 | 4.3 | 0.00 | 0.35 | 0.17 | 70 | 1012.1 |
| 20260507144536 | 70 | 257 | 0.0 | 3.5 | 0.00 | 0.35 | 0.17 | 73 | 1012.2 |
| 20260507143036 | 69 | 267 | 0.0 | 3.5 | 0.00 | 0.35 | 0.17 | 68 | 1012.3 |
| 20260507141532 | 69 | 299 | 0.0 | 4.3 | 0.00 | 0.35 | 0.17 | 70 | 1012.4 |
| 20260507140032 | 68 | 104 | 0.0 | 5.2 | 0.00 | 0.35 | 0.17 | 73 | 1012.6 |
| 20260507134532 | 69 | 59 | 0.0 | 5.2 | 0.00 | 0.35 | 0.17 | 70 | 1013.0 |
| 20260507133028 | 69 | 290 | 0.0 | 6.1 | 0.00 | 0.35 | 0.17 | 76 | 1013.3 |
| 20260507131534 | 69 | 301 | 0.9 | 4.3 | 0.00 | 0.35 | 0.17 | 74 | 1013.5 |
| 20260507130025 | 68 | 281 | 0.0 | 4.3 | 0.00 | 0.35 | 0.17 | 74 | 1013.6 |
| 20260507124530 | 68 | 244 | 0.9 | 2.6 | 0.00 | 0.35 | 0.17 | 73 | 1013.6 |
| 20260507123024 | 68 | 205 | 0.0 | 2.6 | 0.00 | 0.35 | 0.17 | 79 | 1013.7 |
| 20260507121523 | 68 | 302 | 0.0 | 5.2 | 0.00 | 0.35 | 0.17 | 78 | 1013.8 |
| 20260507120027 | 68 | 325 | 0.0 | 0.9 | 0.00 | 0.35 | 0.17 | 77 | 1013.9 |
| 20260507114520 | 68 | 319 | 0.0 | 0.0 | 0.00 | 0.35 | 0.17 | 78 | 1013.8 |
| 20260507113019 | 66 | 126 | 0.0 | 0.0 | 0.00 | 0.35 | 0.17 | 79 | 1013.9 |
| 20260507111518 | 66 | 128 | 0.0 | 0.0 | 0.00 | 0.35 | 0.17 | 78 | 1014.1 |
| 20260507110018 | 66 | 124 | 0.0 | 0.0 | 0.00 | 0.35 | 0.17 | 69 | 1014.3 |
| 20260507104517 | 67 | 122 | 0.0 | 1.7 | 0.00 | 0.35 | 0.17 | 74 | 1014.2 |
| 20260507103017 | 67 | 119 | 0.0 | 1.7 | 0.00 | 0.35 | 0.17 | 73 | 1014.1 |
| 20260507101517 | 67 | 121 | 0.0 | 5.2 | 0.00 | 0.35 | 0.17 | 73 | 1014.2 |
| 20260507100011 | 65 | 126 | 0.0 | 3.5 | 0.00 | 0.35 | 0.17 | 74 | 1014.2 |
| 20260507094508 | 64 | 51 | 0.0 | 1.7 | 0.00 | 0.35 | 0.17 | 80 | 1014.3 |
| 20260507093006 | 63 | 61 | 0.0 | 0.9 | 0.00 | 0.35 | 0.17 | 82 | 1014.4 |
| 20260507091600 | 61 | 61 | 0.0 | 0.9 | 0.00 | 0.35 | 0.17 | 87 | 1014.3 |
| 20260507090101 | 60 | 61 | 0.0 | 0.0 | 0.00 | 0.35 | 0.17 | 91 | 1014.3 |
| 20260507084559 | 59 | 61 | 0.0 | 3.5 | 0.00 | 0.35 | 0.17 | 95 | 1014.3 |
| 20260507083051 | 58 | 59 | 0.0 | 1.7 | 0.00 | 0.35 | 0.17 | 97 | 1014.3 |
| 20260507081548 | 58 | 55 | 0.0 | 3.5 | 0.00 | 0.35 | 0.17 | 99 | 1014.3 |
| 20260507080100 | 57 | 132 | 0.0 | 1.7 | 0.00 | 0.35 | 0.17 | 100 | 1014.4 |
| 20260507074545 | 57 | 132 | 0.0 | 2.6 | 0.00 | 0.35 | 0.17 | 100 | 1014.4 |
| 20260507073046 | 56 | 132 | 0.0 | 0.0 | 0.00 | 0.35 | 0.17 | 100 | 1014.3 |
| 20260507071540 | 56 | 132 | 0.0 | 0.0 | 0.00 | 0.35 | 0.17 | 100 | 1014.4 |
| 20260507070039 | 55 | 132 | 0.0 | 0.0 | 0.00 | 0.35 | 0.17 | 100 | 1014.4 |
| 20260507064537 | 55 | 132 | 0.0 | 0.0 | 0.00 | 0.35 | 0.17 | 100 | 1014.3 |
| 20260507063035 | 55 | 132 | 0.0 | 0.0 | 0.00 | 0.35 | 0.17 | 100 | 1014.2 |
| 20260507061535 | 54 | 132 | 0.0 | 2.6 | 0.00 | 0.35 | 0.17 | 100 | 1014.1 |